"Pseudo-MPEC" for X85182

Created 2025 Jun 17 15:35:05 UT using Find_Orb

Click here for an explanation of pseudo-MPECs

 
 Astrometry: 
     X85182 * C2025 05 26.76151316 32 58.69 -02 52 31.9    ~5T92 18.5 RVNEOCPD29
     X85182   C2025 05 26.77565416 32 58.84 -02 52 31.3    ~5T92 17.9 RVNEOCPD29
     X85182   C2025 05 26.78979616 32 59.01 -02 52 34.7    ~5T92 17.7 RVNEOCPD29

Station data:
(D29) Purple Mountain Observatory, XuYi Station  (N32.734363 E118.463900)
   China.  Observers H. B. Zhao, B. Li, G. Zhaori, R. Q. Hong, L. F. Hu.
   Measurers H. B. Zhao, B. Li. H. Lu, G. Zhaori. 1.04-m f/1.8 Schmidt + CCD.

Orbital elements:  X85182
   Perihelion 2025 Apr 1.25408 +/- 46.7 TT =  6:05:52 (JD 2460766.75408)
Epoch 2025 May 27.0 TT = JDT 2460822.5   Earth MOID: 0.0322   Ju: 0.0381
M   3.45367090 +/- 18               Sa: 0.7223                   AutoNEOCP
n   0.06195378 +/- 0.153            Peri.  328.92710 +/- 100
a   6.32544107 +/- 10.4             Node   215.21897 +/- 52
e   0.8432965 +/- 0.252             Incl.    8.52485 +/- 2.8
P  15.90876                H 19.60  G  0.15   U 11.5  SR
q 0.99121866 +/- 0.334    Q 11.6596634 +/- 88.4           (J2000 ecliptic)
From 3 observations 2025 May 26 (40.7 min); mean residual 0".67
Residuals in arcseconds: 
250526 D29  .06+  .66-    250526 D29  .06-  1.3+    250526 D29  .01+  .67-    

Ephemerides (geocentric):
Date (UTC) HH   RA             Dec           delta  r     elong  mag " sig PA
---- --------  ------------   ------------  ------ ------ -----  --- --------
2025 06 17 16  16 37 59.128   -04 40 08.91  .54370 1.5272 155.4 20.1  61d  90
2025 06 17 17  16 37 59.775   -04 40 26.17  .54421 1.5276 155.4 20.1  61d  90
2025 06 17 18  16 38 00.423   -04 40 43.44  .54472 1.5280 155.4 20.1  61d  90
2025 06 17 19  16 38 01.072   -04 41 00.73  .54523 1.5285 155.3 20.1  61d  90
2025 06 17 20  16 38 01.722   -04 41 18.02  .54575 1.5289 155.3 20.1  61d  90
2025 06 17 21  16 38 02.373   -04 41 35.33  .54626 1.5293 155.3 20.1  61d  90
2025 06 17 22  16 38 03.025   -04 41 52.65  .54677 1.5298 155.3 20.1  61d  90
2025 06 17 23  16 38 03.679   -04 42 09.97  .54728 1.5302 155.2 20.1  61d  90
2025 06 18 00  16 38 04.333   -04 42 27.31  .54779 1.5306 155.2 20.1  61d  90
2025 06 18 01  16 38 04.988   -04 42 44.66  .54830 1.5311 155.2 20.1  61d  90
2025 06 18 02  16 38 05.645   -04 43 02.01  .54882 1.5315 155.2 20.1  61d  90
2025 06 18 03  16 38 06.302   -04 43 19.38  .54933 1.5319 155.2 20.1  61d  90
2025 06 18 04  16 38 06.961   -04 43 36.76  .54984 1.5324 155.1 20.1  61d  90
2025 06 18 05  16 38 07.621   -04 43 54.15  .55036 1.5328 155.1 20.1  61d  90
2025 06 18 06  16 38 08.282   -04 44 11.55  .55087 1.5333 155.1 20.1  61d  90
2025 06 18 07  16 38 08.943   -04 44 28.95  .55138 1.5337 155.1 20.1  61d  90
2025 06 18 08  16 38 09.606   -04 44 46.37  .55190 1.5341 155.0 20.1  61d  90
2025 06 18 09  16 38 10.271   -04 45 03.80  .55241 1.5346 155.0 20.1  61d  90
2025 06 18 10  16 38 10.936   -04 45 21.24  .55293 1.5350 155.0 20.1  61d  90
2025 06 18 11  16 38 11.602   -04 45 38.69  .55344 1.5354 155.0 20.1  62d  90
2025 06 18 12  16 38 12.269   -04 45 56.15  .55396 1.5359 155.0 20.1  62d  90
2025 06 18 13  16 38 12.938   -04 46 13.62  .55447 1.5363 154.9 20.1  62d  90
2025 06 18 14  16 38 13.607   -04 46 31.10  .55499 1.5367 154.9 20.1  62d  90
2025 06 18 15  16 38 14.278   -04 46 48.58  .55550 1.5372 154.9 20.1  62d  90
2025 06 18 16  16 38 14.950   -04 47 06.08  .55602 1.5376 154.9 20.1  62d  90
2025 06 18 17  16 38 15.623   -04 47 23.59  .55654 1.5380 154.8 20.1  62d  90
2025 06 18 18  16 38 16.297   -04 47 41.11  .55705 1.5385 154.8 20.1  62d  90
2025 06 18 19  16 38 16.972   -04 47 58.64  .55757 1.5389 154.8 20.1  62d  90
2025 06 18 20  16 38 17.648   -04 48 16.17  .55809 1.5394 154.8 20.1  62d  90
2025 06 18 21  16 38 18.326   -04 48 33.72  .55860 1.5398 154.7 20.1  62d  90
2025 06 18 22  16 38 19.004   -04 48 51.28  .55912 1.5402 154.7 20.2  62d  90
2025 06 18 23  16 38 19.684   -04 49 08.84  .55964 1.5407 154.7 20.2  62d  90
2025 06 19 00  16 38 20.365   -04 49 26.42  .56016 1.5411 154.7 20.2  62d  90
2025 06 19 01  16 38 21.046   -04 49 44.00  .56067 1.5415 154.6 20.2  62d  90
2025 06 19 02  16 38 21.729   -04 50 01.60  .56119 1.5420 154.6 20.2  62d  90
2025 06 19 03  16 38 22.414   -04 50 19.20  .56171 1.5424 154.6 20.2  62d  90
2025 06 19 04  16 38 23.099   -04 50 36.82  .56223 1.5428 154.6 20.2  62d  90
2025 06 19 05  16 38 23.786   -04 50 54.44  .56275 1.5433 154.6 20.2  62d  90
2025 06 19 06  16 38 24.473   -04 51 12.08  .56327 1.5437 154.5 20.2  62d  90
2025 06 19 07  16 38 25.162   -04 51 29.72  .56379 1.5442 154.5 20.2  62d  90
2025 06 19 08  16 38 25.852   -04 51 47.37  .56431 1.5446 154.5 20.2  62d  90
2025 06 19 09  16 38 26.543   -04 52 05.03  .56483 1.5450 154.5 20.2  62d  90
2025 06 19 10  16 38 27.235   -04 52 22.70  .56535 1.5455 154.4 20.2  62d  90
2025 06 19 11  16 38 27.929   -04 52 40.38  .56587 1.5459 154.4 20.2  63d  90
2025 06 19 12  16 38 28.623   -04 52 58.07  .56639 1.5463 154.4 20.2  63d  90
2025 06 19 13  16 38 29.319   -04 53 15.77  .56691 1.5468 154.4 20.2  63d  90
2025 06 19 14  16 38 30.016   -04 53 33.48  .56743 1.5472 154.3 20.2  63d  90
2025 06 19 15  16 38 30.714   -04 53 51.19  .56796 1.5476 154.3 20.2  63d  90